| time (UTC) | temp C | wind direction | speed KPH | gust KPH | rain 1hr cm | rain 24hr cm | rain mn cm | humidity % | barometer mb |
| 20260901015614 | 14 | 19 | 11.3 | 24.1 | 0.08 | 0.08 | 0.08 | 74 | |
| 20260901014503 | 15 | 6 | 12.9 | 33.8 | 0.03 | 0.03 | 0.03 | 70 | |
| 20260901013603 | 15 | 359 | 11.3 | 30.6 | 0.00 | 0.00 | 0.00 | 67 | |
| 20260901012914 | 15 | 26 | 8.0 | 22.5 | 0.00 | 0.00 | 0.00 | 65 | |
| 20260901011803 | 16 | 348 | 11.3 | 25.7 | 0.00 | 0.00 | 0.00 | 60 | |
| 20260901010903 | 17 | 343 | 14.5 | 29.0 | 0.00 | 0.00 | 0.00 | 57 | |
| 20260901010003 | 17 | 348 | 11.3 | 20.9 | 0.00 | 0.00 | 0.00 | 59 | |
| 20260901005614 | 17 | 342 | 9.7 | 22.5 | 0.00 | 0.00 | 0.00 | 59 | |
| 20260901004503 | 18 | 342 | 17.7 | 32.2 | 0.00 | 0.00 | 0.00 | 57 | |
| 20260901003603 | 21 | 307 | 20.9 | 40.2 | 0.00 | 0.00 | 0.00 | 51 | |
| 20260901002703 | 23 | 197 | 9.7 | 22.5 | 0.00 | 0.00 | 0.00 | 46 | |
| 20260901001803 | 23 | 173 | 11.3 | 48.3 | 0.00 | 0.00 | 0.00 | 44 | |
| 20260901000903 | 24 | 171 | 8.0 | 19.3 | 0.00 | 0.00 | 0.00 | 45 | |
| 20260901000003 | 24 | 132 | 9.7 | 20.9 | 0.00 | 0.00 | 0.00 | 45 | |
| 20260831235403 | 24 | 122 | 11.3 | 29.0 | 0.00 | 0.00 | 0.00 | 46 | |
| 20260831234503 | 23 | 126 | 14.5 | 29.0 | 0.00 | 0.00 | 0.00 | 46 | |
| 20260831233603 | 23 | 123 | 12.9 | 24.1 | 0.00 | 0.00 | 0.00 | 47 | |
| 20260831232703 | 23 | 131 | 11.3 | 24.1 | 0.00 | 0.00 | 0.00 | 46 | |
| 20260831232013 | 23 | 120 | 14.5 | 30.6 | 0.00 | 0.00 | 0.00 | 45 | |
| 20260831230903 | 24 | 121 | 12.9 | 25.7 | 0.00 | 0.00 | 0.00 | 44 | |
| 20260831230003 | 24 | 120 | 12.9 | 30.6 | 0.00 | 0.00 | 0.00 | 42 | |
| 20260831225403 | 24 | 129 | 12.9 | 30.6 | 0.00 | 0.00 | 0.00 | 43 | |
| 20260831224503 | 24 | 116 | 14.5 | 41.8 | 0.00 | 0.00 | 0.00 | 44 | |
| 20260831223603 | 24 | 117 | 16.1 | 41.8 | 0.00 | 0.00 | 0.00 | 44 | |
| 20260831222703 | 24 | 109 | 11.3 | 33.8 | 0.00 | 0.00 | 0.00 | 46 | |
| 20260831221803 | 24 | 100 | 12.9 | 25.7 | 0.00 | 0.00 | 0.00 | 46 | |
| 20260831220903 | 24 | 120 | 11.3 | 27.4 | 0.00 | 0.00 | 0.00 | 46 | |
| 20260831220003 | 23 | 122 | 11.3 | 20.9 | 0.00 | 0.00 | 0.00 | 46 | |
| 20260831215403 | 23 | 135 | 11.3 | 24.1 | 0.00 | 0.00 | 0.00 | 48 | |
| 20260831214714 | 23 | 138 | 11.3 | 24.1 | 0.00 | 0.00 | 0.00 | 48 | |
| 20260831213603 | 22 | 190 | 11.3 | 33.8 | 0.00 | 0.00 | 0.00 | 51 | |
| 20260831212703 | 23 | 201 | 8.0 | 20.9 | 0.00 | 0.00 | 0.00 | 53 | |
| 20260831211803 | 21 | 109 | 14.5 | 32.2 | 0.00 | 0.00 | 0.00 | 49 | |
| 20260831210903 | 20 | 122 | 14.5 | 35.4 | 0.00 | 0.00 | 0.00 | 46 | |
| 20260831210003 | 21 | 136 | 14.5 | 29.0 | 0.00 | 0.00 | 0.00 | 43 | |
| 20260831205403 | 21 | 148 | 11.3 | 29.0 | 0.00 | 0.00 | 0.00 | 39 | |
| 20260831204503 | 21 | 146 | 11.3 | 24.1 | 0.00 | 0.00 | 0.00 | 43 | |
| 20260831203603 | 21 | 136 | 12.9 | 29.0 | 0.00 | 0.00 | 0.00 | 45 | |
| 20260831202912 | 22 | 135 | 12.9 | 20.9 | 0.00 | 0.00 | 0.00 | 46 |